User: anonymous   Login
Location: Unspecified
(0.0000°N, 0.0000°E)
Time: 06:48:38
(UTC+00:00)
Language:

TSUBAME - Orbit

View from above orbital plane
View from above orbital plane
View from above satellite
View from above satellite

Ground track
Ground track

The orbit data is extracted from the following two-line orbital elements,

1 40302U 14070E   17087.89844356 +.00001798 +00000-0 +94713-4 0  9994
2 40302 097.3832 162.1595 0041172 043.9951 044.0147 15.16163721132186
Epoch (UTC): 28 March 2017 21:33:45
Eccentricity: 0.0041172
inclination: 97.3832°
perigee height: 489 km
apogee height: 546 km
right ascension of ascending node: 162.1595°
argument of perigee: 43.9951°
revolutions per day: 15.16163721
mean anomaly at epoch: 44.0147°
orbit number at epoch: 13218

The dashed part of the orbit path shows where the satellite is in the earth's shadow,  

DLR